CDT,Max TemperatureF,Mean TemperatureF,Min TemperatureF,Max Dew PointF,MeanDew PointF,Min DewpointF,Max Humidity, Mean Humidity, Min Humidity, Max Sea Level PressureIn, Mean Sea Level PressureIn, Min Sea Level PressureIn, Max VisibilityMiles, Mean VisibilityMiles, Min VisibilityMiles, Max Wind SpeedMPH, Mean Wind SpeedMPH, Max Gust SpeedMPH,PrecipitationIn, CloudCover, Events, WindDirDegrees
2014-4-1,51,40,28,28,22,17,64,50,36,30.12,29.96,29.76,10,10,10,33,16,44,0.00,4,,271
2014-4-2,51,43,34,34,31,27,75,61,46,30.15,30.06,29.97,10,10,9,24,12,30,0.07,6,Rain-Thunderstorm,72
2014-4-3,44,41,37,40,37,32,100,93,85,29.94,29.78,29.60,8,4,1,24,15,30,0.42,8,Rain-Thunderstorm,78
2014-4-4,46,41,36,43,33,25,100,77,54,30.11,29.69,29.46,10,7,1,33,17,45,0.01,8,,272
2014-4-5,53,40,26,29,27,24,92,64,35,30.24,30.17,30.12,10,9,5,12,4,16,0.00,1,,238
2014-4-6,60,45,30,34,30,26,82,56,30,30.13,30.03,29.92,10,10,10,15,7,18,0.00,2,,155
2014-4-7,63,50,37,40,35,30,85,59,33,29.91,29.76,29.66,10,10,10,17,6,24,T,2,,4
2014-4-8,63,51,39,38,33,28,82,56,29,29.99,29.84,29.73,10,10,10,21,10,26,0.00,2,,306
2014-4-9,68,49,30,33,29,25,85,53,20,30.07,29.95,29.78,10,10,9,21,10,30,0.00,0,,233
2014-4-10,68,54,39,38,29,19,49,34,18,29.98,29.79,29.65,10,10,10,22,11,29,0.00,0,,281
2014-4-11,74,53,31,33,27,24,82,49,16,30.07,30.00,29.94,10,10,10,22,7,29,0.00,0,,219
2014-4-12,83,70,56,55,46,28,63,46,29,29.96,29.75,29.58,10,10,10,24,14,31,0.00,2,,187
2014-4-13,68,58,48,61,56,49,97,77,57,29.71,29.57,29.35,10,8,2,31,8,43,0.73,7,Rain-Thunderstorm,151
2014-4-14,48,40,31,45,30,21,85,74,63,30.09,29.87,29.39,10,7,1,23,15,31,0.03,7,Rain-Snow,324
2014-4-15,43,35,27,21,16,8,69,47,24,30.20,30.15,30.09,10,10,10,18,9,23,0.00,0,,300
2014-4-16,59,43,27,28,24,19,69,49,28,30.18,30.09,29.97,10,10,10,30,16,40,0.00,1,,149
2014-4-17,56,46,35,36,33,27,79,62,45,30.30,30.18,30.00,10,10,6,22,10,35,0.00,2,,256
2014-4-18,64,47,29,36,31,27,92,60,27,30.38,30.31,30.24,10,9,4,20,4,24,0.00,0,,56
2014-4-19,74,54,34,36,32,26,82,53,23,30.34,30.24,30.14,10,9,6,20,10,25,0.00,0,,133
2014-4-20,82,65,48,46,42,36,59,43,26,30.16,30.07,29.97,10,10,10,18,9,24,0.00,0,,193
2014-4-21,72,63,53,61,52,42,87,63,39,29.98,29.91,29.85,10,9,0,21,8,25,0.39,3,Fog-Rain-Thunderstorm,261
2014-4-22,64,52,39,42,32,25,71,47,23,30.07,30.01,29.93,10,10,10,21,9,26,0.00,0,,329
2014-4-23,58,45,32,41,32,25,82,56,30,30.19,30.09,29.94,10,10,9,21,10,24,0.10,4,Rain,106
2014-4-24,65,55,44,54,44,37,93,68,42,29.96,29.76,29.64,10,8,3,28,12,35,0.21,6,Rain-Thunderstorm,114
2014-4-25,74,58,42,48,40,33,89,56,23,29.87,29.80,29.68,10,9,6,21,8,26,0.00,1,,293
2014-4-26,73,58,42,42,38,30,83,57,31,29.93,29.89,29.83,10,10,10,32,15,40,0.02,1,Thunderstorm,79
2014-4-27,74,58,42,56,47,32,93,65,37,29.92,29.74,29.63,10,8,1,33,22,40,0.98,6,Rain-Thunderstorm,85
2014-4-28,58,52,46,54,49,45,93,83,72,29.61,29.48,29.39,10,7,1,31,16,39,0.75,7,Rain-Thunderstorm,100
2014-4-29,56,50,44,49,46,45,93,80,66,29.63,29.50,29.40,10,9,5,22,7,30,0.06,7,Rain,178
2014-4-30,49,44,39,45,37,33,93,79,65,29.80,29.75,29.64,10,9,2,21,12,25,0.00,8,,256